Regional Weather Roundup
Issued by NWS Upton, NY

Current Version | Previous Version | Graphics & Text | Print | Product List | Glossary Off
Versions: 1 2 3 4 5 6 7 8 9 10 11 12 13 14 15 16 17 18 19 20 21 22 23 24 25 26 27 28 29 30 31 32 33 34 35 36 37 38 39 40 41 42 43 44 45 46 47 48 49 50
000 ASUS41 KOKX 180105 RWROKX REGIONAL WEATHER ROUNDUP NATIONAL WEATHER SERVICE NEW YORK NY 900 PM EDT WED SEP 17 2014 NOTE: "FAIR" INDICATES FEW OR NO CLOUDS BELOW 12,000 FEET WITH NO SIGNIFICANT WEATHER AND/OR OBSTRUCTIONS TO VISIBILITY. NYZ071-072-176-178-NJZ106-104-180200- NEW YORK CITY METRO AREA CITY SKY/WX TMP DP RH WIND PRES REMARKS CENTRAL PARK CLEAR 66 43 43 W3 30.01R LAGUARDIA APRT PTCLDY 68 47 46 CALM 29.98R KENNEDY INTL PTCLDY 64 51 62 SW7 29.99S NEWARK/LIBERTY PTCLDY 65 50 58 S6 29.98S BRNX BOT. GARD N/A 59 45 58 E1 30.01R TETERBORO CLEAR 64 44 48 CALM 29.97S $$ NYZ177-179-078>081-180200- LONG ISLAND NEW YORK CITY SKY/WX TMP DP RH WIND PRES REMARKS FARMINGDALE CLEAR 63 49 60 S5 30.00R ISLIP PTCLDY 57 48 72 CALM 29.99R SHIRLEY CLEAR 54 47 77 CALM 30.00R WESTHAMPTON CLEAR 51 43 74 CALM 30.01R MONTAUK POINT N/A 62 51 67 SW3 30.01R $$ NYZ052-065-067-180200- HUDSON VALLEY CITY SKY/WX TMP DP RH WIND PRES REMARKS WHITE PLAINS CLEAR 56 48 74 CALM 29.99R NEWBURGH NOT AVBL MONTGOMERY MOCLDY 53 49 86 CALM 29.99R POUGHKEEPSIE PTCLDY 53 49 86 CALM 29.98R ALBANY PTCLDY 53 48 83 CALM 29.98S $$ NJZ001-105-106-008-010-013-015-019>022-104-180200- NEW JERSEY CITY SKY/WX TMP DP RH WIND PRES REMARKS NEWARK/LIBERTY PTCLDY 65 50 58 S6 29.98S TETERBORO CLEAR 64 44 48 CALM 29.97S CALDWELL CLEAR 57 47 69 CALM 29.99S MORRISTOWN CLEAR 52 48 87 CALM 29.99S SOMERVILLE CLEAR 55 51 86 NW3 29.97S LINDEN FAIR 68 55 62 CALM 30.00S SUSSEX CLEAR 54 49 83 CALM 30.00R ANDOVER N/A 51 49 92 CALM 30.00R TRENTON CLEAR 59 48 67 CALM 29.98R MILLVILLE CLEAR 57 53 86 CALM 29.99R ATLANTIC CITY CLEAR 55 52 89 CALM 29.99S WRIGHTSTOWN PTCLDY 58 53 84 CALM 29.97R TOMS RIVER CLEAR 54 50 87 CALM 30.00R BELMAR CLEAR 61 48 63 SW3 30.00R $$ PAZ047>061-062-071-180200- EASTERN PENNSYLVANIA CITY SKY/WX TMP DP RH WIND PRES REMARKS PHILADELPHIA PTCLDY 66 52 60 CALM 29.98R ALLENTOWN CLEAR 56 47 71 CALM 29.99R SCRANTON CLEAR 55 43 63 E5 29.99S $$ CTZ002-004>006-009-010-012-RIZ004-006-007-MAZ004-011-015-180200- SOUTHERN NEW ENGLAND IN CT CITY SKY/WX TMP DP RH WIND PRES REMARKS BRADLEY INTL PTCLDY 54 48 80 W3 29.98R HARTFORD CLEAR 56 50 80 SE9 29.99R DANBURY CLEAR 50 47 89 SW5 30.01R WTRBRY/OXFORD CLEAR 52 43 71 CALM 30.01R BRIDGEPORT CLEAR 63 47 55 CALM 29.99R MERIDEN CLEAR 52 47 83 CALM 29.99S NEW HAVEN CLEAR 56 46 69 CALM 29.99S CHESTER FAIR 57 48 72 W3 30.00S GROTON CLEAR 55 49 80 CALM 29.99R WILLIMANTIC PTCLDY 54 49 83 CALM 30.00R IN RI CITY SKY/WX TMP DP RH WIND PRES REMARKS PROVIDENCE PTCLDY 60 46 59 W6 29.99R BLOCK ISLAND CLEAR 59 48 67 SW6 30.00R WESTERLY CLEAR 55 49 80 CALM 30.00R IN MA CITY SKY/WX TMP DP RH WIND PRES REMARKS BOSTON CLEAR 61 50 67 S5 29.98R WORCESTER CLEAR 52 46 80 W6 30.00R WESTFIELD MOCLDY 52 50 93 CALM 29.99R PROVINCETOWN CLEAR 63 52 67 SW8 29.98S NANTUCKET CLEAR 59 54 83 SW5 29.99S $$ ANZ330-335-338-340-345-350-353-355-180200- COASTAL MARINE OBSERVATIONS STATION/POSITION TIME SKY/WX TEMP WIND PRES VSBY WAVE AIR SEA DIR/SP/G HT/PER (UTC) (F) (DEG/KT/KT) (MB) (MI) (FT/S) NY HARB ENTRANCE NOT AVBL 4S FIRE IS 0100 70 N/A 4/13 23SW MTP 0100 N/A 4/13 HUDSON CANYON 0100 66 74 350/ 4/ 6 1015.7 4/14 EXECUTION ROCKS 0000 66 71 160/ 6/ 8 N/A WESTERN LI SOUND 0100 66 180/ 8/ 8 N/A 0 CENTRAL LI SOUND 0000 68 71 280/ 6/ 10 N/A 1 EASTERN LI SOUND 0000 67 68 280/ 10/ 12 N/A ROBBINS REEF 0100 65 190/ 9/ 10 1014.1 $$ >>>>>>>>>>>>>>>>>>>>>>>>>>>> KEY <<<<<<<<<<<<<<<<<<<<<<<<<<< > < > SKY/WX - SKY CONDITION/PRESENT WEATHER < > TMP - TEMPERATURE IN FAHRENHEIT < > DP - DEWPOINT IN FAHRENHEIT < > RH - RELATIVE HUMIDITY IN PERCENT < > WIND - DIRECTION AND SPEED IN MPH < > PRES - MEAN SEA LEVEL PRESSURE IN INCHES OF HG < > WCI - WIND CHILL INDEX < > VSB - VISIBILITY IN MILES < > HX - HEAT INDEX < > TC - TEMPERATURE IN CELSIUS < > VRB - VARIABLE WIND DIRECTION < > < >>>>>>>>>>>>>>>>>>>>>>>>>>>> KEY <<<<<<<<<<<<<<<<<<<<<<<<<<<

USA.gov is the U.S. government's official web portal to all federal, state and local government web resources and services.